Time,TemperatureF,DewpointF,PressureIn,WindDirection,WindDirectionDegrees,WindSpeedMPH,WindSpeedGustMPH,Humidity,HourlyPrecipIn,Conditions,Clouds,dailyrainin,SolarRadiationWatts/m^2,SoftwareType,DateUTC
2013-10-03 00:14:00,53.2,42.0,30.07,NW,322,1.0,6.0,66,0.00,,,0.00,0,weatherlink.com 1.10,2013-10-03 07:14:00,
2013-10-03 00:29:00,56.1,42.0,30.07,NNW,338,5.0,10.0,59,0.00,,,0.00,0,weatherlink.com 1.10,2013-10-03 07:29:00,
2013-10-03 00:44:00,56.4,41.0,30.07,WNW,302,3.0,6.0,57,0.00,,,0.00,0,weatherlink.com 1.10,2013-10-03 07:44:00,
2013-10-03 00:59:00,56.0,41.0,30.07,WNW,295,2.0,7.0,58,0.00,,,0.00,0,weatherlink.com 1.10,2013-10-03 07:59:00,
2013-10-03 01:23:00,54.3,42.0,30.08,NW,308,2.0,5.0,64,0.00,,,0.00,0,weatherlink.com 1.10,2013-10-03 08:23:00,
2013-10-03 02:00:00,53.5,43.0,30.08,NW,307,2.0,7.0,68,0.00,,,0.00,0,weatherlink.com 1.10,2013-10-03 09:00:00,
2013-10-03 02:15:00,52.9,42.0,30.08,NNW,335,2.0,5.0,67,0.00,,,0.00,0,weatherlink.com 1.10,2013-10-03 09:15:00,
2013-10-03 02:30:00,53.6,42.0,30.09,WNW,283,1.0,9.0,66,0.00,,,0.00,0,weatherlink.com 1.10,2013-10-03 09:30:00,
2013-10-03 02:59:00,53.9,41.0,30.09,NW,309,2.0,4.0,63,0.00,,,0.00,0,weatherlink.com 1.10,2013-10-03 09:59:00,
2013-10-03 03:14:00,54.5,42.0,30.09,WSW,251,0.0,6.0,63,0.00,,,0.00,0,weatherlink.com 1.10,2013-10-03 10:14:00,
2013-10-03 03:29:00,53.6,42.0,30.09,NW,311,1.0,4.0,66,0.00,,,0.00,0,weatherlink.com 1.10,2013-10-03 10:29:00,
2013-10-03 03:44:00,54.1,41.0,30.09,NW,311,2.0,7.0,62,0.00,,,0.00,0,weatherlink.com 1.10,2013-10-03 10:44:00,
2013-10-03 03:59:00,54.6,41.0,30.08,WNW,301,1.0,8.0,61,0.00,,,0.00,0,weatherlink.com 1.10,2013-10-03 10:59:00,
2013-10-03 04:14:00,53.7,42.0,30.08,WNW,302,2.0,6.0,65,0.00,,,0.00,0,weatherlink.com 1.10,2013-10-03 11:14:00,
2013-10-03 04:29:00,54.3,41.0,30.08,WNW,295,0.0,7.0,62,0.00,,,0.00,0,weatherlink.com 1.10,2013-10-03 11:29:00,
2013-10-03 04:44:00,54.0,42.0,30.09,NW,315,1.0,6.0,63,0.00,,,0.00,0,weatherlink.com 1.10,2013-10-03 11:44:00,
2013-10-03 04:59:00,54.1,42.0,30.09,WNW,288,3.0,8.0,63,0.00,,,0.00,0,weatherlink.com 1.10,2013-10-03 11:59:00,
2013-10-03 05:14:00,53.1,42.0,30.09,WSW,246,4.0,6.0,66,0.00,,,0.00,0,weatherlink.com 1.10,2013-10-03 12:14:00,
2013-10-03 05:29:00,52.8,42.0,30.08,WNW,299,3.0,6.0,68,0.00,,,0.00,0,weatherlink.com 1.10,2013-10-03 12:29:00,
2013-10-03 05:44:00,51.3,41.0,30.09,WNW,285,1.0,4.0,69,0.00,,,0.00,0,weatherlink.com 1.10,2013-10-03 12:44:00,
2013-10-03 05:59:00,52.1,42.0,30.08,WNW,284,3.0,7.0,68,0.00,,,0.00,0,weatherlink.com 1.10,2013-10-03 12:59:00,
2013-10-03 06:14:00,51.8,41.0,30.09,NW,310,0.0,3.0,67,0.00,,,0.00,0,weatherlink.com 1.10,2013-10-03 13:14:00,
2013-10-03 06:29:00,51.3,41.0,30.09,NNW,331,2.0,5.0,68,0.00,,,0.00,0,weatherlink.com 1.10,2013-10-03 13:29:00,
2013-10-03 06:44:00,52.1,41.0,30.10,North,10,1.0,5.0,66,0.00,,,0.00,0,weatherlink.com 1.10,2013-10-03 13:44:00,
2013-10-03 06:59:00,50.5,40.0,30.10,NNE,30,2.0,5.0,68,0.00,,,0.00,0,weatherlink.com 1.10,2013-10-03 13:59:00,
2013-10-03 07:14:00,51.1,40.0,30.10,NNW,332,0.0,3.0,67,0.00,,,0.00,7,weatherlink.com 1.10,2013-10-03 14:14:00,
2013-10-03 07:29:00,52.9,40.0,30.10,WNW,290,5.0,6.0,63,0.00,,,0.00,12,weatherlink.com 1.10,2013-10-03 14:29:00,
2013-10-03 07:44:00,54.0,40.0,30.09,NW,304,3.0,5.0,60,0.00,,,0.00,18,weatherlink.com 1.10,2013-10-03 14:44:00,
2013-10-03 07:59:00,54.3,40.0,30.10,NNW,327,2.0,6.0,59,0.00,,,0.00,23,weatherlink.com 1.10,2013-10-03 14:59:00,
2013-10-03 08:14:00,55.0,41.0,30.11,North,360,0.0,7.0,59,0.00,,,0.00,151,weatherlink.com 1.10,2013-10-03 15:14:00,
2013-10-03 08:30:00,55.5,40.0,30.11,WNW,302,0.0,3.0,57,0.00,,,0.00,214,weatherlink.com 1.10,2013-10-03 15:30:00,
2013-10-03 08:45:00,56.7,41.0,30.11,West,274,0.0,6.0,56,0.00,,,0.00,272,weatherlink.com 1.10,2013-10-03 15:45:00,
2013-10-03 09:00:00,58.0,41.0,30.11,NNW,336,0.0,12.0,54,0.00,,,0.00,327,weatherlink.com 1.10,2013-10-03 16:00:00,
2013-10-03 09:15:00,58.9,41.0,30.12,NNW,348,1.0,11.0,52,0.00,,,0.00,373,weatherlink.com 1.10,2013-10-03 16:15:00,
2013-10-03 09:30:00,59.3,41.0,30.12,North,360,7.0,12.0,51,0.00,,,0.00,418,weatherlink.com 1.10,2013-10-03 16:30:00,
2013-10-03 09:45:00,59.6,41.0,30.12,NNW,336,12.0,12.0,51,0.00,,,0.00,464,weatherlink.com 1.10,2013-10-03 16:45:00,
2013-10-03 10:00:00,60.2,41.0,30.12,NW,315,3.0,11.0,50,0.00,,,0.00,504,weatherlink.com 1.10,2013-10-03 17:00:00,
2013-10-03 10:30:00,61.7,41.0,30.11,WNW,288,5.0,16.0,46,0.00,,,0.00,582,weatherlink.com 1.10,2013-10-03 17:30:00,
2013-10-03 10:45:00,62.4,41.0,30.11,WNW,299,4.0,18.0,46,0.00,,,0.00,617,weatherlink.com 1.10,2013-10-03 17:45:00,
2013-10-03 11:00:00,63.2,41.0,30.11,West,261,8.0,17.0,44,0.00,,,0.00,643,weatherlink.com 1.10,2013-10-03 18:00:00,
2013-10-03 11:15:00,64.0,40.0,30.11,NW,323,5.0,15.0,42,0.00,,,0.00,675,weatherlink.com 1.10,2013-10-03 18:15:00,
2013-10-03 11:30:00,64.9,40.0,30.11,WNW,293,7.0,16.0,40,0.00,,,0.00,698,weatherlink.com 1.10,2013-10-03 18:30:00,
2013-10-03 11:45:00,65.7,41.0,30.09,West,270,5.0,12.0,41,0.00,,,0.00,719,weatherlink.com 1.10,2013-10-03 18:45:00,
2013-10-03 12:00:00,66.6,40.0,30.09,SW,232,6.0,14.0,38,0.00,,,0.00,735,weatherlink.com 1.10,2013-10-03 19:00:00,
2013-10-03 12:16:00,60.3,46.0,30.09,NNW,340,8.0,21.0,60,0.00,,,0.00,744,weatherlink.com 1.10,2013-10-03 19:16:00,
2013-10-03 12:31:00,59.0,47.0,30.09,WNW,293,4.0,18.0,64,0.00,,,0.00,751,weatherlink.com 1.10,2013-10-03 19:31:00,
2013-10-03 12:46:00,58.2,47.0,30.08,WNW,299,5.0,20.0,67,0.00,,,0.00,758,weatherlink.com 1.10,2013-10-03 19:46:00,
2013-10-03 13:01:00,58.5,47.0,30.08,WNW,282,8.0,18.0,66,0.00,,,0.00,758,weatherlink.com 1.10,2013-10-03 20:01:00,
2013-10-03 13:16:00,59.8,47.0,30.07,WNW,292,14.0,17.0,63,0.00,,,0.00,752,weatherlink.com 1.10,2013-10-03 20:16:00,
2013-10-03 13:31:00,59.1,48.0,30.06,West,267,14.0,15.0,66,0.00,,,0.00,747,weatherlink.com 1.10,2013-10-03 20:31:00,
2013-10-03 13:46:00,59.0,48.0,30.06,West,263,6.0,18.0,66,0.00,,,0.00,737,weatherlink.com 1.10,2013-10-03 20:46:00,
2013-10-03 14:01:00,59.6,48.0,30.05,WSW,255,14.0,17.0,65,0.00,,,0.00,722,weatherlink.com 1.10,2013-10-03 21:01:00,
2013-10-03 14:16:00,59.4,48.0,30.05,West,269,9.0,22.0,65,0.00,,,0.00,705,weatherlink.com 1.10,2013-10-03 21:16:00,
2013-10-03 14:31:00,59.4,48.0,30.04,West,280,6.0,20.0,66,0.00,,,0.00,686,weatherlink.com 1.10,2013-10-03 21:31:00,
2013-10-03 14:46:00,59.8,47.0,30.03,WNW,297,13.0,19.0,64,0.00,,,0.00,661,weatherlink.com 1.10,2013-10-03 21:46:00,
2013-10-03 15:01:00,60.0,48.0,30.03,NW,318,13.0,19.0,64,0.00,,,0.00,631,weatherlink.com 1.10,2013-10-03 22:01:00,
2013-10-03 15:16:00,60.0,48.0,30.03,West,281,6.0,19.0,64,0.00,,,0.00,601,weatherlink.com 1.10,2013-10-03 22:16:00,
2013-10-03 15:31:00,60.6,47.0,30.02,West,261,7.0,16.0,62,0.00,,,0.00,570,weatherlink.com 1.10,2013-10-03 22:31:00,
2013-10-03 15:46:00,60.4,48.0,30.02,WNW,288,7.0,17.0,63,0.00,,,0.00,533,weatherlink.com 1.10,2013-10-03 22:46:00,
2013-10-03 16:01:00,61.6,47.0,30.02,West,281,11.0,15.0,60,0.00,,,0.00,494,weatherlink.com 1.10,2013-10-03 23:01:00,
2013-10-03 16:16:00,60.8,47.0,30.02,WSW,251,9.0,17.0,60,0.00,,,0.00,455,weatherlink.com 1.10,2013-10-03 23:16:00,
2013-10-03 16:31:00,64.2,47.0,30.01,West,271,6.0,17.0,53,0.00,,,0.00,411,weatherlink.com 1.10,2013-10-03 23:31:00,
2013-10-03 16:46:00,62.1,47.0,30.01,NW,304,12.0,15.0,59,0.00,,,0.00,369,weatherlink.com 1.10,2013-10-03 23:46:00,
2013-10-03 17:01:00,61.8,48.0,30.02,West,272,11.0,13.0,60,0.00,,,0.00,318,weatherlink.com 1.10,2013-10-04 00:01:00,
2013-10-03 17:16:00,62.3,48.0,30.02,West,273,8.0,12.0,59,0.00,,,0.00,271,weatherlink.com 1.10,2013-10-04 00:16:00,
2013-10-03 17:31:00,67.1,45.0,30.02,NNW,331,6.0,12.0,45,0.00,,,0.00,225,weatherlink.com 1.10,2013-10-04 00:31:00,
2013-10-03 17:46:00,68.6,45.0,30.02,NW,324,4.0,8.0,43,0.00,,,0.00,165,weatherlink.com 1.10,2013-10-04 00:46:00,
2013-10-03 18:01:00,67.5,44.0,30.02,NW,321,7.0,10.0,43,0.00,,,0.00,107,weatherlink.com 1.10,2013-10-04 01:01:00,
2013-10-03 18:16:00,66.7,43.0,30.02,North,5,7.0,12.0,43,0.00,,,0.00,54,weatherlink.com 1.10,2013-10-04 01:16:00,
2013-10-03 18:31:00,66.4,43.0,30.02,NW,306,3.0,12.0,43,0.00,,,0.00,21,weatherlink.com 1.10,2013-10-04 01:31:00,
2013-10-03 18:46:00,65.5,43.0,30.03,NW,321,3.0,9.0,44,0.00,,,0.00,9,weatherlink.com 1.10,2013-10-04 01:46:00,
2013-10-03 19:01:00,64.5,43.0,30.02,NW,316,3.0,9.0,45,0.00,,,0.00,0,weatherlink.com 1.10,2013-10-04 02:01:00,
2013-10-03 19:16:00,63.7,43.0,30.03,NNW,345,2.0,11.0,47,0.00,,,0.00,0,weatherlink.com 1.10,2013-10-04 02:16:00,
2013-10-03 19:31:00,63.8,42.0,30.03,NW,306,5.0,8.0,46,0.00,,,0.00,0,weatherlink.com 1.10,2013-10-04 02:31:00,
2013-10-03 20:02:00,61.8,43.0,30.04,North,351,1.0,3.0,50,0.00,,,0.00,0,weatherlink.com 1.10,2013-10-04 03:02:00,
2013-10-03 20:16:00,61.3,43.0,30.04,NNW,336,6.0,7.0,51,0.00,,,0.00,0,weatherlink.com 1.10,2013-10-04 03:16:00,
2013-10-03 20:31:00,62.6,42.0,30.04,North,360,6.0,7.0,48,0.00,,,0.00,0,weatherlink.com 1.10,2013-10-04 03:31:00,
2013-10-03 20:46:00,62.9,42.0,30.04,NW,322,5.0,9.0,47,0.00,,,0.00,0,weatherlink.com 1.10,2013-10-04 03:46:00,
2013-10-03 21:31:00,63.8,39.0,30.05,WNW,303,0.0,6.0,40,0.00,,,0.00,0,weatherlink.com 1.10,2013-10-04 04:31:00,
2013-10-03 21:46:00,63.6,39.0,30.05,North,5,4.0,10.0,40,0.00,,,0.00,0,weatherlink.com 1.10,2013-10-04 04:46:00,
2013-10-03 22:02:00,64.3,38.0,30.04,West,279,6.0,13.0,38,0.00,,,0.00,0,weatherlink.com 1.10,2013-10-04 05:02:00,
2013-10-03 22:17:00,64.8,37.0,30.04,WNW,289,6.0,13.0,36,0.00,,,0.00,0,weatherlink.com 1.10,2013-10-04 05:17:00,
2013-10-03 22:47:00,65.0,35.0,30.04,WNW,284,4.0,10.0,33,0.00,,,0.00,0,weatherlink.com 1.10,2013-10-04 05:47:00,
2013-10-03 23:02:00,64.4,35.0,30.04,WNW,286,5.0,11.0,34,0.00,,,0.00,0,weatherlink.com 1.10,2013-10-04 06:02:00,
2013-10-03 23:17:00,63.9,36.0,30.04,WNW,286,6.0,8.0,36,0.00,,,0.00,0,weatherlink.com 1.10,2013-10-04 06:17:00,
2013-10-03 23:32:00,63.2,36.0,30.04,WNW,293,3.0,11.0,36,0.00,,,0.00,0,weatherlink.com 1.10,2013-10-04 06:32:00,
2013-10-03 23:47:00,63.1,36.0,30.04,WNW,292,2.0,8.0,36,0.00,,,0.00,0,weatherlink.com 1.10,2013-10-04 06:47:00,